Time,TemperatureF,DewpointF,PressureIn,WindDirection,WindDirectionDegrees,WindSpeedMPH,WindSpeedGustMPH,Humidity,HourlyPrecipIn,Conditions,Clouds,dailyrainin,SolarRadiationWatts/m^2,SoftwareType,DateUTC
2013-01-14 00:04:00,66.0,64.0,-100.00,SE,139,3.0,-999.0,93,0.00,,,-99.99,0.000000,,2013-01-14 05:04:00,
2013-01-14 00:12:00,66.0,64.0,-100.00,SE,140,3.0,-999.0,93,0.00,,,-99.99,0.000000,,2013-01-14 05:12:00,
2013-01-14 00:22:00,66.0,64.0,-100.00,SE,140,3.0,-999.0,93,0.00,,,-99.99,0.000000,,2013-01-14 05:22:00,
2013-01-14 00:33:00,66.0,64.0,-100.00,SE,138,4.0,-999.0,93,0.00,,,-99.99,0.000000,,2013-01-14 05:33:00,
2013-01-14 00:43:00,66.0,64.0,-100.00,SE,145,2.0,-999.0,93,0.00,,,-99.99,0.000000,,2013-01-14 05:43:00,
2013-01-14 00:53:00,66.0,64.0,-100.00,SE,145,2.0,-999.0,93,0.00,,,-99.99,0.000000,,2013-01-14 05:53:00,
2013-01-14 01:03:00,65.0,63.0,-100.00,SE,144,1.0,-999.0,94,0.00,,,-99.99,0.000000,,2013-01-14 06:03:00,
2013-01-14 01:12:00,65.0,63.0,-100.00,SE,140,1.0,-999.0,94,0.00,,,-99.99,0.000000,,2013-01-14 06:12:00,
2013-01-14 01:22:00,65.0,63.0,-100.00,SE,140,1.0,-999.0,94,0.00,,,-99.99,0.000000,,2013-01-14 06:22:00,
2013-01-14 01:33:00,64.0,63.0,-100.00,SE,143,2.0,-999.0,94,0.00,,,-99.99,0.000000,,2013-01-14 06:33:00,
2013-01-14 01:43:00,64.0,63.0,-100.00,SE,143,2.0,-999.0,94,0.00,,,-99.99,0.000000,,2013-01-14 06:43:00,
2013-01-14 01:53:00,64.0,63.0,-100.00,SE,143,2.0,-999.0,94,0.00,,,-99.99,0.000000,,2013-01-14 06:53:00,
2013-01-14 02:02:00,64.0,62.0,-100.00,SE,141,1.0,-999.0,95,0.00,,,-99.99,0.000000,,2013-01-14 07:02:00,
2013-01-14 02:12:00,63.0,62.0,-100.00,SE,142,1.0,-999.0,95,0.00,,,-99.99,0.000000,,2013-01-14 07:12:00,
2013-01-14 02:22:00,63.0,62.0,-100.00,SE,142,1.0,-999.0,95,0.00,,,-99.99,0.000000,,2013-01-14 07:22:00,
2013-01-14 02:33:00,63.0,62.0,-100.00,SE,143,2.0,-999.0,95,0.00,,,-99.99,0.000000,,2013-01-14 07:33:00,
2013-01-14 02:43:00,64.0,62.0,-100.00,SE,132,1.0,-999.0,95,0.00,,,-99.99,0.000000,,2013-01-14 07:43:00,
2013-01-14 02:53:00,64.0,62.0,-100.00,SE,132,1.0,-999.0,95,0.00,,,-99.99,0.000000,,2013-01-14 07:53:00,
2013-01-14 03:02:00,63.0,62.0,-100.00,ESE,111,1.0,-999.0,95,0.00,,,-99.99,0.000000,,2013-01-14 08:02:00,
2013-01-14 03:12:00,63.0,62.0,-100.00,ESE,123,1.0,-999.0,95,0.00,,,-99.99,0.000000,,2013-01-14 08:12:00,
2013-01-14 03:22:00,63.0,62.0,-100.00,ESE,123,1.0,-999.0,95,0.00,,,-99.99,0.000000,,2013-01-14 08:22:00,
2013-01-14 03:33:00,63.0,62.0,-100.00,SSE,161,1.0,-999.0,95,0.00,,,-99.99,0.000000,,2013-01-14 08:33:00,
2013-01-14 03:42:00,62.0,61.0,-100.00,South,179,1.0,-999.0,95,0.00,,,-99.99,0.000000,,2013-01-14 08:42:00,
2013-01-14 03:53:00,62.0,61.0,-100.00,South,179,1.0,-999.0,95,0.00,,,-99.99,0.000000,,2013-01-14 08:53:00,
2013-01-14 04:02:00,62.0,61.0,-100.00,SSE,151,1.0,-999.0,96,0.00,,,-99.99,0.000000,,2013-01-14 09:02:00,
2013-01-14 04:12:00,62.0,61.0,-100.00,ESE,102,1.0,-999.0,96,0.00,,,-99.99,0.000000,,2013-01-14 09:12:00,
2013-01-14 04:23:00,62.0,61.0,-100.00,ESE,102,1.0,-999.0,96,0.00,,,-99.99,0.000000,,2013-01-14 09:23:00,
2013-01-14 04:33:00,61.0,60.0,-100.00,NNE,33,0.0,-999.0,96,0.00,,,-99.99,0.000000,,2013-01-14 09:33:00,
2013-01-14 04:43:00,62.0,61.0,-100.00,ENE,68,1.0,-999.0,96,0.00,,,-99.99,0.000000,,2013-01-14 09:43:00,
2013-01-14 04:53:00,62.0,61.0,-100.00,ENE,68,1.0,-999.0,96,0.00,,,-99.99,0.000000,,2013-01-14 09:53:00,
2013-01-14 05:02:00,63.0,61.0,-100.00,ESE,117,2.0,-999.0,96,0.00,,,-99.99,0.000000,,2013-01-14 10:02:00,
2013-01-14 05:12:00,63.0,62.0,-100.00,ESE,122,2.0,-999.0,96,0.00,,,-99.99,0.000000,,2013-01-14 10:12:00,
2013-01-14 05:23:00,63.0,62.0,-100.00,ESE,122,2.0,-999.0,96,0.00,,,-99.99,0.000000,,2013-01-14 10:23:00,
2013-01-14 05:32:00,63.0,62.0,-100.00,SE,125,2.0,-999.0,96,0.00,,,-99.99,0.000000,,2013-01-14 10:32:00,
2013-01-14 05:42:00,63.0,62.0,-100.00,SE,137,2.0,-999.0,96,0.00,,,-99.99,0.000000,,2013-01-14 10:42:00,
2013-01-14 05:53:00,63.0,62.0,-100.00,SE,137,2.0,-999.0,96,0.00,,,-99.99,0.000000,,2013-01-14 10:53:00,
2013-01-14 06:02:00,63.0,62.0,-100.00,SE,140,3.0,-999.0,96,0.00,,,-99.99,0.000000,,2013-01-14 11:02:00,
2013-01-14 06:12:00,63.0,62.0,-100.00,SE,145,2.0,-999.0,96,0.00,,,-99.99,0.000000,,2013-01-14 11:12:00,
2013-01-14 06:22:00,63.0,62.0,-100.00,SE,145,2.0,-999.0,96,0.00,,,-99.99,0.000000,,2013-01-14 11:22:00,
2013-01-14 06:32:00,63.0,62.0,-100.00,SE,143,2.0,-999.0,96,0.00,,,-99.99,0.000000,,2013-01-14 11:32:00,
2013-01-14 06:43:00,63.0,62.0,-100.00,SE,126,3.0,-999.0,96,0.00,,,-99.99,0.000000,,2013-01-14 11:43:00,
2013-01-14 06:53:00,63.0,62.0,-100.00,SE,126,3.0,-999.0,96,0.00,,,-99.99,0.000000,,2013-01-14 11:53:00,
2013-01-14 07:03:00,62.0,61.0,-100.00,ESE,123,2.0,-999.0,96,0.00,,,-99.99,0.000000,,2013-01-14 12:03:00,
2013-01-14 07:12:00,62.0,61.0,-100.00,SE,136,2.0,-999.0,96,0.00,,,-99.99,0.000000,,2013-01-14 12:12:00,
2013-01-14 07:23:00,62.0,61.0,-100.00,SE,136,2.0,-999.0,96,0.00,,,-99.99,0.000000,,2013-01-14 12:23:00,
2013-01-14 07:33:00,62.0,61.0,-100.00,SE,140,1.0,-999.0,96,0.00,,,-99.99,2.400000,,2013-01-14 12:33:00,
2013-01-14 07:43:00,61.0,60.0,-100.00,ENE,74,0.0,-999.0,96,0.00,,,-99.99,6.400000,,2013-01-14 12:43:00,
2013-01-14 07:53:00,61.0,60.0,-100.00,ENE,74,0.0,-999.0,96,0.00,,,-99.99,6.400000,,2013-01-14 12:53:00,
2013-01-14 08:03:00,61.0,60.0,-100.00,ENE,58,1.0,-999.0,96,0.00,,,-99.99,18.500000,,2013-01-14 13:03:00,
2013-01-14 08:13:00,61.0,60.0,-100.00,ENE,63,1.0,-999.0,96,0.00,,,-99.99,29.900000,,2013-01-14 13:13:00,
2013-01-14 08:23:00,61.0,60.0,-100.00,ENE,63,1.0,-999.0,96,0.00,,,-99.99,29.900000,,2013-01-14 13:23:00,
2013-01-14 08:33:00,61.0,60.0,-100.00,NE,56,2.0,-999.0,96,0.00,,,-99.99,42.200001,,2013-01-14 13:33:00,
2013-01-14 08:43:00,61.0,60.0,-100.00,NE,48,2.0,-999.0,96,0.00,,,-99.99,76.699997,,2013-01-14 13:43:00,
2013-01-14 08:53:00,61.0,60.0,-100.00,NE,48,2.0,-999.0,96,0.00,,,-99.99,76.699997,,2013-01-14 13:53:00,
2013-01-14 09:03:00,62.0,61.0,-100.00,ENE,71,2.0,-999.0,96,0.00,,,-99.99,121.599998,,2013-01-14 14:03:00,
2013-01-14 09:13:00,63.0,62.0,-100.00,ENE,72,2.0,-999.0,96,0.00,,,-99.99,198.399994,,2013-01-14 14:13:00,
2013-01-14 09:23:00,63.0,62.0,-100.00,ENE,72,2.0,-999.0,96,0.00,,,-99.99,198.399994,,2013-01-14 14:23:00,
2013-01-14 09:33:00,65.0,64.0,-100.00,ESE,113,2.0,-999.0,96,0.00,,,-99.99,276.100006,,2013-01-14 14:33:00,
2013-01-14 09:43:00,66.0,65.0,-100.00,SE,141,2.0,-999.0,96,0.00,,,-99.99,322.899994,,2013-01-14 14:43:00,
2013-01-14 09:53:00,66.0,65.0,-100.00,SE,141,2.0,-999.0,96,0.00,,,-99.99,322.899994,,2013-01-14 14:53:00,
2013-01-14 10:03:00,67.0,66.0,-100.00,SE,135,2.0,-999.0,95,0.00,,,-99.99,365.000000,,2013-01-14 15:03:00,
2013-01-14 10:12:00,69.0,67.0,-100.00,SE,145,2.0,-999.0,93,0.00,,,-99.99,412.500000,,2013-01-14 15:12:00,
2013-01-14 10:23:00,69.0,67.0,-100.00,SE,145,2.0,-999.0,93,0.00,,,-99.99,412.500000,,2013-01-14 15:23:00,
2013-01-14 10:33:00,72.0,67.0,-100.00,SE,145,4.0,-999.0,85,0.00,,,-99.99,448.600006,,2013-01-14 15:33:00,
2013-01-14 10:43:00,74.0,66.0,-100.00,SE,146,4.0,-999.0,77,0.00,,,-99.99,482.700012,,2013-01-14 15:43:00,
2013-01-14 10:53:00,74.0,66.0,-100.00,SE,146,4.0,-999.0,77,0.00,,,-99.99,482.700012,,2013-01-14 15:53:00,
2013-01-14 11:03:00,75.0,66.0,-100.00,SE,146,4.0,-999.0,74,0.00,,,-99.99,496.700012,,2013-01-14 16:03:00,
2013-01-14 11:12:00,76.0,65.0,-100.00,SE,138,4.0,-999.0,70,0.00,,,-99.99,517.599976,,2013-01-14 16:12:00,
2013-01-14 11:23:00,76.0,65.0,-100.00,SE,138,4.0,-999.0,70,0.00,,,-99.99,517.599976,,2013-01-14 16:23:00,
2013-01-14 11:33:00,76.0,65.0,-100.00,SSE,149,4.0,-999.0,68,0.00,,,-99.99,404.399994,,2013-01-14 16:33:00,
2013-01-14 11:43:00,75.0,64.0,-100.00,SE,143,4.0,-999.0,68,0.00,,,-99.99,284.000000,,2013-01-14 16:43:00,
2013-01-14 11:53:00,75.0,64.0,-100.00,SE,143,4.0,-999.0,68,0.00,,,-99.99,284.000000,,2013-01-14 16:53:00,
2013-01-14 12:03:00,75.0,64.0,-100.00,SSE,165,3.0,-999.0,66,0.00,,,-99.99,336.399994,,2013-01-14 17:03:00,
2013-01-14 12:12:00,77.0,64.0,-100.00,SSE,155,4.0,-999.0,63,0.00,,,-99.99,376.000000,,2013-01-14 17:12:00,
2013-01-14 12:23:00,77.0,64.0,-100.00,SSE,155,4.0,-999.0,63,0.00,,,-99.99,376.000000,,2013-01-14 17:23:00,
2013-01-14 12:33:00,76.0,63.0,-100.00,SSE,162,2.0,-999.0,63,0.00,,,-99.99,231.699997,,2013-01-14 17:33:00,
2013-01-14 12:43:00,76.0,63.0,-100.00,SSE,163,3.0,-999.0,62,0.00,,,-99.99,285.899994,,2013-01-14 17:43:00,
2013-01-14 12:54:00,76.0,63.0,-100.00,SSE,163,3.0,-999.0,62,0.00,,,-99.99,285.899994,,2013-01-14 17:54:00,
2013-01-14 13:03:00,78.0,63.0,-100.00,South,170,3.0,-999.0,59,0.00,,,-99.99,522.000000,,2013-01-14 18:03:00,
2013-01-14 13:13:00,79.0,63.0,-100.00,SSE,166,4.0,-999.0,57,0.00,,,-99.99,603.500000,,2013-01-14 18:13:00,
2013-01-14 13:23:00,79.0,63.0,-100.00,SSE,166,4.0,-999.0,57,0.00,,,-99.99,603.500000,,2013-01-14 18:23:00,
2013-01-14 13:33:00,79.0,63.0,-100.00,SSE,164,3.0,-999.0,58,0.00,,,-99.99,516.299988,,2013-01-14 18:33:00,
2013-01-14 13:43:00,79.0,63.0,-100.00,SSE,158,3.0,-999.0,58,0.00,,,-99.99,418.899994,,2013-01-14 18:43:00,
2013-01-14 13:53:00,79.0,63.0,-100.00,SSE,158,3.0,-999.0,58,0.00,,,-99.99,418.899994,,2013-01-14 18:53:00,
2013-01-14 14:03:00,79.0,62.0,-100.00,SSE,160,4.0,-999.0,56,0.00,,,-99.99,519.000000,,2013-01-14 19:03:00,
2013-01-14 14:13:00,80.0,63.0,-100.00,SE,135,5.0,-999.0,56,0.00,,,-99.99,653.400024,,2013-01-14 19:13:00,
2013-01-14 14:22:00,80.0,63.0,-100.00,SE,135,5.0,-999.0,56,0.00,,,-99.99,653.400024,,2013-01-14 19:22:00,
2013-01-14 14:33:00,79.0,63.0,-100.00,ESE,123,4.0,-999.0,57,0.00,,,-99.99,515.299988,,2013-01-14 19:33:00,
2013-01-14 14:43:00,80.0,63.0,-100.00,SSE,148,4.0,-999.0,56,0.00,,,-99.99,579.799988,,2013-01-14 19:43:00,
2013-01-14 14:53:00,80.0,63.0,-100.00,SSE,148,4.0,-999.0,56,0.00,,,-99.99,579.799988,,2013-01-14 19:53:00,
2013-01-14 15:03:00,79.0,63.0,-100.00,SE,131,4.0,-999.0,57,0.00,,,-99.99,346.500000,,2013-01-14 20:03:00,
2013-01-14 15:13:00,80.0,63.0,-100.00,SSE,162,3.0,-999.0,55,0.00,,,-99.99,498.399994,,2013-01-14 20:13:00,
2013-01-14 15:23:00,80.0,63.0,-100.00,SSE,162,3.0,-999.0,55,0.00,,,-99.99,498.399994,,2013-01-14 20:23:00,
2013-01-14 15:33:00,81.0,63.0,-100.00,SE,134,4.0,-999.0,54,0.00,,,-99.99,562.000000,,2013-01-14 20:33:00,
2013-01-14 15:43:00,81.0,63.0,-100.00,ESE,107,6.0,-999.0,55,0.00,,,-99.99,504.299988,,2013-01-14 20:43:00,
2013-01-14 15:53:00,81.0,63.0,-100.00,ESE,107,6.0,-999.0,55,0.00,,,-99.99,504.299988,,2013-01-14 20:53:00,
2013-01-14 16:03:00,80.0,64.0,-100.00,ESE,120,4.0,-999.0,56,0.00,,,-99.99,423.399994,,2013-01-14 21:03:00,
2013-01-14 16:12:00,80.0,63.0,-100.00,ESE,120,4.0,-999.0,57,0.00,,,-99.99,318.100006,,2013-01-14 21:12:00,
2013-01-14 16:23:00,80.0,63.0,-100.00,ESE,120,4.0,-999.0,57,0.00,,,-99.99,318.100006,,2013-01-14 21:23:00,
2013-01-14 16:33:00,80.0,63.0,-100.00,SE,143,4.0,-999.0,56,0.00,,,-99.99,301.000000,,2013-01-14 21:33:00,
2013-01-14 16:43:00,80.0,63.0,-100.00,South,172,3.0,-999.0,54,0.00,,,-99.99,231.000000,,2013-01-14 21:43:00,
2013-01-14 16:53:00,80.0,63.0,-100.00,South,172,3.0,-999.0,54,0.00,,,-99.99,231.000000,,2013-01-14 21:53:00,
2013-01-14 17:03:00,79.0,62.0,-100.00,SSE,166,2.0,-999.0,56,0.00,,,-99.99,152.199997,,2013-01-14 22:03:00,
2013-01-14 17:12:00,79.0,63.0,-100.00,SSE,154,2.0,-999.0,57,0.00,,,-99.99,148.699997,,2013-01-14 22:12:00,
2013-01-14 17:23:00,79.0,63.0,-100.00,SSE,154,2.0,-999.0,57,0.00,,,-99.99,148.699997,,2013-01-14 22:23:00,
2013-01-14 17:33:00,78.0,62.0,-100.00,SSE,155,3.0,-999.0,57,0.00,,,-99.99,87.900002,,2013-01-14 22:33:00,
2013-01-14 17:43:00,77.0,62.0,-100.00,SSE,158,2.0,-999.0,59,0.00,,,-99.99,41.000000,,2013-01-14 22:43:00,
2013-01-14 17:53:00,77.0,62.0,-100.00,SSE,158,2.0,-999.0,59,0.00,,,-99.99,41.000000,,2013-01-14 22:53:00,
2013-01-14 18:03:00,76.0,62.0,-100.00,SSE,163,1.0,-999.0,62,0.00,,,-99.99,15.600000,,2013-01-14 23:03:00,
2013-01-14 18:12:00,74.0,62.0,-100.00,South,169,1.0,-999.0,66,0.00,,,-99.99,4.700000,,2013-01-14 23:12:00,
2013-01-14 18:23:00,74.0,62.0,-100.00,South,169,1.0,-999.0,66,0.00,,,-99.99,4.700000,,2013-01-14 23:23:00,
2013-01-14 18:33:00,73.0,62.0,-100.00,SE,131,1.0,-999.0,69,0.00,,,-99.99,0.600000,,2013-01-14 23:33:00,
2013-01-14 18:43:00,72.0,63.0,-100.00,SE,138,3.0,-999.0,73,0.00,,,-99.99,0.000000,,2013-01-14 23:43:00,
2013-01-14 18:53:00,72.0,63.0,-100.00,SE,138,3.0,-999.0,73,0.00,,,-99.99,0.000000,,2013-01-14 23:53:00,
2013-01-14 19:03:00,71.0,63.0,-100.00,SE,134,2.0,-999.0,75,0.00,,,-99.99,0.000000,,2013-01-15 00:03:00,
2013-01-14 19:12:00,71.0,63.0,-100.00,ESE,121,2.0,-999.0,76,0.00,,,-99.99,0.000000,,2013-01-15 00:12:00,
2013-01-14 19:23:00,71.0,63.0,-100.00,ESE,121,2.0,-999.0,76,0.00,,,-99.99,0.000000,,2013-01-15 00:23:00,
2013-01-14 19:33:00,70.0,63.0,-100.00,SE,135,1.0,-999.0,79,0.00,,,-99.99,0.000000,,2013-01-15 00:33:00,
2013-01-14 19:43:00,69.0,63.0,-100.00,SE,143,1.0,-999.0,81,0.00,,,-99.99,0.000000,,2013-01-15 00:43:00,
2013-01-14 19:53:00,69.0,63.0,-100.00,SE,143,1.0,-999.0,81,0.00,,,-99.99,0.000000,,2013-01-15 00:53:00,
2013-01-14 20:02:00,68.0,63.0,-100.00,ESE,109,1.0,-999.0,83,0.00,,,-99.99,0.000000,,2013-01-15 01:02:00,
2013-01-14 20:12:00,68.0,63.0,-100.00,SE,125,2.0,-999.0,85,0.00,,,-99.99,0.000000,,2013-01-15 01:12:00,
2013-01-14 20:22:00,68.0,63.0,-100.00,SE,125,2.0,-999.0,85,0.00,,,-99.99,0.000000,,2013-01-15 01:22:00,
2013-01-14 20:32:00,69.0,64.0,-100.00,SE,129,4.0,-999.0,83,0.00,,,-99.99,0.000000,,2013-01-15 01:32:00,
2013-01-14 20:43:00,71.0,65.0,-100.00,SE,132,4.0,-999.0,81,0.00,,,-99.99,0.000000,,2013-01-15 01:43:00,
2013-01-14 20:52:00,71.0,65.0,-100.00,SE,132,4.0,-999.0,81,0.00,,,-99.99,0.000000,,2013-01-15 01:52:00,
2013-01-14 21:02:00,70.0,65.0,-100.00,SE,128,4.0,-999.0,82,0.00,,,-99.99,0.000000,,2013-01-15 02:02:00,
2013-01-14 21:12:00,70.0,65.0,-100.00,SE,132,4.0,-999.0,84,0.00,,,-99.99,0.000000,,2013-01-15 02:12:00,
2013-01-14 21:22:00,70.0,65.0,-100.00,SE,132,4.0,-999.0,84,0.00,,,-99.99,0.000000,,2013-01-15 02:22:00,
2013-01-14 21:32:00,69.0,65.0,-100.00,SE,131,4.0,-999.0,86,0.00,,,-99.99,0.000000,,2013-01-15 02:32:00,
2013-01-14 21:42:00,69.0,65.0,-100.00,SE,135,4.0,-999.0,87,0.00,,,-99.99,0.000000,,2013-01-15 02:42:00,
2013-01-14 21:53:00,69.0,65.0,-100.00,SE,135,4.0,-999.0,87,0.00,,,-99.99,0.000000,,2013-01-15 02:53:00,
2013-01-14 22:02:00,69.0,65.0,-100.00,SE,135,5.0,-999.0,87,0.00,,,-99.99,0.000000,,2013-01-15 03:02:00,
2013-01-14 22:12:00,69.0,65.0,-100.00,SE,135,5.0,-999.0,88,0.00,,,-99.99,0.000000,,2013-01-15 03:12:00,
2013-01-14 22:22:00,69.0,65.0,-100.00,SE,135,5.0,-999.0,88,0.00,,,-99.99,0.000000,,2013-01-15 03:22:00,
2013-01-14 22:33:00,69.0,65.0,-100.00,SE,143,5.0,-999.0,88,0.00,,,-99.99,0.000000,,2013-01-15 03:33:00,
2013-01-14 22:42:00,68.0,65.0,-100.00,SE,143,4.0,-999.0,88,0.00,,,-99.99,0.000000,,2013-01-15 03:42:00,
2013-01-14 22:53:00,68.0,65.0,-100.00,SE,143,4.0,-999.0,88,0.00,,,-99.99,0.000000,,2013-01-15 03:53:00,
2013-01-14 23:02:00,68.0,65.0,-100.00,SE,144,4.0,-999.0,89,0.00,,,-99.99,0.000000,,2013-01-15 04:02:00,
2013-01-14 23:12:00,68.0,65.0,-100.00,SE,139,4.0,-999.0,90,0.00,,,-99.99,0.000000,,2013-01-15 04:12:00,
2013-01-14 23:22:00,68.0,65.0,-100.00,SE,139,4.0,-999.0,90,0.00,,,-99.99,0.000000,,2013-01-15 04:22:00,
2013-01-14 23:32:00,68.0,65.0,-100.00,SE,141,5.0,-999.0,90,0.00,,,-99.99,0.000000,,2013-01-15 04:32:00,
2013-01-14 23:42:00,67.0,65.0,-100.00,SE,143,4.0,-999.0,91,0.00,,,-99.99,0.000000,,2013-01-15 04:42:00,
2013-01-14 23:52:00,67.0,65.0,-100.00,SE,143,4.0,-999.0,91,0.00,,,-99.99,0.000000,,2013-01-15 04:52:00,